250  
ASUS43 KGLD 222008  
RWRGLD  
 
GOODLAND FORECAST AREA HOURLY WEATHER ROUNDUP  
NATIONAL WEATHER SERVICE GOODLAND KS  
200 PM MDT FRI OCT 22 2021  
   
..OFFICIAL OBSERVATIONS
 
 
 
CITY SKY/WX TMP DP RH WIND PRES REMARKS
 
GOODLAND KS SUNNY 78 26 14 VRB3 29.95F  
HILL CITY KS SUNNY 79 41 25 W6 29.92F HAZE  
IMPERIAL NEB SUNNY 77 31 18 NW9 29.94F  
MCCOOK NEB SUNNY 77 34 21 NW9 29.91F  
AKRON CO SUNNY 72 21 14 N8 30.00  
BURLINGTON CO SUNNY 76 25 15 VRB3 29.98F  
LIMON CO SUNNY 73 18 12 VRB6 30.02F  

 
   
..UNOFFICIAL OBSERVATIONS
 
 
 
CITY SKY/WX TMP DP RH WIND PRES REMARKS
 
COLBY KS SUNNY 78 26 15 W5 29.95F  
NORTON KS FAIR 79 34 19 W10G18 29.94F  
SHARON SPRINGS N/A 80 19 10 CALM N/A  
YUMA CO FAIR 73 -24 2 W6 29.97F  

 
 
 
CLICK HERE TO GO TO PREVIOUS BULLETINS.

The Nexlab KS Page
The Nexlab CO Page
The Nexlab NE Page Main Text Page